COMSATBW-1

Last updated on Sun Jun 21 2026 00:03:04 GMT+0000 (Coordinated Universal Time)

1 35943U 09054B 26171.11935014 .00000020 00000+0 00000+0 0 9993 2 35943 0.0525 157.9793 0002841 289.0909 287.2692 1.00269250 61335
UTC large
Height (km)
Speed (km/s)
/
Latitude / Longitude
Inclination (degrees)
Orbital Period (minutes)
Azimuth
Elevation
Range (km)
Doppler Factor

Next 0 passes for location: London (51.5072 / 0.1276)

No passes found over London.
COMSATBW-1